User: anonymous   Login
Location: Stigler
(35.2540°N, 95.1230°W)
Time: 01:11:04
(UTC-05:00)
Language:

Cosmos 1805 - Orbit

View from above orbital plane
View from above orbital plane
View from above satellite
View from above satellite

Ground track
Ground track

The orbit data is extracted from the following two-line orbital elements,

1 17191U 86097A   17234.29247019 +.00000183 +00000-0 +89062-5 0  9992
2 17191 082.4761 324.3690 0004338 188.2114 171.9046 15.11815125673340
Epoch (UTC): 22 August 2017 07:01:09
Eccentricity: 0.0004338
inclination: 82.4761°
perigee height: 527 km
apogee height: 533 km
right ascension of ascending node: 324.3690°
argument of perigee: 188.2114°
revolutions per day: 15.11815125
mean anomaly at epoch: 171.9046°
orbit number at epoch: 67334

The dashed part of the orbit path shows where the satellite is in the earth's shadow,  

DLR